Starlink 32488

operational
NORAD ID: 62125 Int'l Des: 2024-222 Owner: SPXS Country: US Constellation: starlink
LEOCIRCULAR

Starlink 32488について

説明を読み込み中...

リアルタイム位置

3D地球を読み込み中...

次回通過

高度履歴

Altitude vs Time

uPlot chart will show altitude changes over time

軌道要素

1 62125U 24222M 26036.11868868 .00041705 00000-0 15150-2 0 9992
2 62125 43.0014 320.4717 0004437 235.5986 124.4447 15.27605178 67663
Epoch: Feb 5, 2026 • Age: 7 hours

現在のステータス

高度 485.9 km
速度 7.63 km/s
衛星直下点 36.05°N, 167.62°E
打ち上げ日 Nov 27, 2024
運用期間 1.1 years
タイプ internet

技術仕様

分類 Payload
質量 730.00 kg
乾燥質量 700.00 kg
総質量 730.00 kg
長さ 0.30 m
直径 4.10 m
スパン 29.00 m
形状 Box + pan
製造者 SPXS
バスタイプ Starlink V2M
フェーズステータス In Orbit
所有者/国 SPXS/US

大規模コンステレーション

Loading constellations...